�������l�o���
Date,Time,MP-1(��Sv/h),MP-2(��Sv/h),MP-3(��Sv/h),MP-4(��Sv/h),MP-5(��Sv/h),MP-6(��Sv/h),MP-7(��Sv/h),MP-8(��Sv/h),����,����(m/s),���J
2018/07/24,00:00,0.898,1.286,0.901,1.617,1.149,0.480,0.847,0.799,��,0.6,��
2018/07/24,00:10,0.899,1.286,0.902,1.618,1.149,0.481,0.846,0.799,�k��,0.9,��
2018/07/24,00:20,0.902,1.282,0.904,1.618,1.148,0.480,0.846,0.799,��,0.9,��
2018/07/24,00:30,0.901,1.283,0.902,1.616,1.148,0.481,0.847,0.797,�k�k��,1.4,��
2018/07/24,00:40,0.899,1.280,0.903,1.615,1.148,0.483,0.848,0.800,�k,0.9,��
2018/07/24,00:50,0.900,1.278,0.904,1.617,1.148,0.481,0.846,0.799,�k�k��,1.2,��
2018/07/24,01:00,0.897,1.282,0.901,1.616,1.146,0.481,0.847,0.798,�k�k��,1.2,��
2018/07/24,01:10,0.898,1.282,0.901,1.618,1.147,0.480,0.847,0.799,�k�k��,0.6,��
2018/07/24,01:20,0.900,1.281,0.902,1.615,1.145,0.481,0.847,0.799,�k��,0.8,��
2018/07/24,01:30,0.898,1.280,0.901,1.617,1.148,0.481,0.846,0.799,�k�k��,1.2,��
2018/07/24,01:40,0.899,1.280,0.900,1.615,1.144,0.481,0.845,0.798,�k�k��,0.8,��
2018/07/24,01:50,0.897,1.280,0.900,1.614,1.147,0.481,0.849,0.800,�k��,1.2,��
2018/07/24,02:00,0.900,1.280,0.900,1.616,1.147,0.481,0.846,0.797,��,0.8,��
2018/07/24,02:10,0.898,1.280,0.902,1.616,1.146,0.482,0.845,0.799,��,0.9,��
2018/07/24,02:20,0.900,1.279,0.901,1.619,1.147,0.482,0.847,0.799,�k��,0.9,��
2018/07/24,02:30,0.899,1.281,0.901,1.616,1.147,0.481,0.847,0.799,�k�k��,0.8,��
2018/07/24,02:40,0.898,1.282,0.900,1.614,1.146,0.481,0.846,0.798,�k�k��,0.9,�L
2018/07/24,02:50,0.897,1.280,0.900,1.616,1.147,0.482,0.846,0.797,��,0.9,�L
2018/07/24,03:00,0.898,1.277,0.902,1.614,1.148,0.481,0.846,0.798,���쓌,0.8,�L
2018/07/24,03:10,0.899,1.278,0.900,1.614,1.146,0.481,0.848,0.798,�쓌,1.1,��
2018/07/24,03:20,0.896,1.280,0.902,1.618,1.145,0.482,0.844,0.799,��쓌,1.5,��
2018/07/24,03:30,0.897,1.278,0.898,1.614,1.144,0.479,0.846,0.798,��쐼,1.1,��
2018/07/24,03:40,0.898,1.280,0.902,1.614,1.144,0.480,0.845,0.798,��,1.2,��
2018/07/24,03:50,0.897,1.276,0.899,1.616,1.142,0.479,0.845,0.801,��쐼,0.8,��
2018/07/24,04:00,0.897,1.274,0.900,1.612,1.145,0.480,0.846,0.798,�쓌,0.9,��
2018/07/24,04:10,0.897,1.277,0.899,1.611,1.143,0.480,0.845,0.798,��쓌,1.4,��
2018/07/24,04:20,0.896,1.273,0.902,1.612,1.145,0.479,0.847,0.799,��쓌,0.9,��
2018/07/24,04:30,0.898,1.275,0.900,1.615,1.144,0.480,0.846,0.798,�쓌,0.9,��
2018/07/24,04:40,0.896,1.278,0.900,1.612,1.146,0.480,0.847,0.798,�쓌,1.5,��
2018/07/24,04:50,0.897,1.276,0.900,1.615,1.145,0.480,0.845,0.799,��쓌,1.7,��
2018/07/24,05:00,0.899,1.278,0.900,1.611,1.146,0.481,0.845,0.798,��쓌,2.2,��
2018/07/24,05:10,0.895,1.273,0.899,1.617,1.144,0.481,0.846,0.798,��쓌,2.3,��
2018/07/24,05:20,0.895,1.274,0.898,1.612,1.143,0.480,0.845,0.798,�쓌,1.7,��
2018/07/24,05:30,0.896,1.274,0.899,1.612,1.145,0.479,0.846,0.797,��,1.7,��
2018/07/24,05:40,0.895,1.276,0.900,1.612,1.142,0.479,0.846,0.798,��,1.5,�L
2018/07/24,05:50,0.897,1.275,0.900,1.613,1.142,0.480,0.848,0.798,�쓌,1.2,��
2018/07/24,06:00,0.896,1.272,0.899,1.612,1.143,0.480,0.846,0.797,��쓌,0.6,��
2018/07/24,06:10,0.896,1.274,0.901,1.614,1.144,0.479,0.846,0.798,���쓌,1.2,��
2018/07/24,06:20,0.896,1.275,0.900,1.615,1.142,0.479,0.845,0.800,��,0.9,��
2018/07/24,06:30,0.896,1.275,0.900,1.615,1.145,0.479,0.846,0.799,�k�k��,1.2,�L
2018/07/24,06:40,0.897,1.275,0.898,1.613,1.144,0.480,0.846,0.798,-,CALM,�L
2018/07/24,06:50,0.895,1.272,0.899,1.612,1.145,0.480,0.845,0.799,��,0.9,�L
2018/07/24,07:00,0.898,1.275,0.898,1.616,1.143,0.481,0.847,0.798,��,0.6,�L
2018/07/24,07:10,0.897,1.275,0.899,1.615,1.144,0.481,0.846,0.799,���k��,0.9,�L
2018/07/24,07:20,0.896,1.275,0.900,1.613,1.142,0.481,0.845,0.799,���k��,0.9,�L
2018/07/24,07:30,0.897,1.277,0.899,1.614,1.145,0.480,0.846,0.797,�쓌,1.5,�L
2018/07/24,07:40,0.896,1.277,0.899,1.613,1.146,0.479,0.846,0.797,���쓌,1.2,��
2018/07/24,07:50,0.898,1.277,0.900,1.614,1.145,0.480,0.845,0.800,���쓌,1.7,��
2018/07/24,08:00,0.898,1.277,0.897,1.613,1.146,0.480,0.845,0.799,���쓌,1.7,��
2018/07/24,08:10,0.897,1.274,0.899,1.611,1.148,0.479,0.846,0.800,��,1.4,��
2018/07/24,08:20,0.897,1.275,0.897,1.611,1.146,0.480,0.846,0.798,���k��,1.5,��
2018/07/24,08:30,0.898,1.275,0.898,1.614,1.147,0.478,0.846,0.799,���쓌,1.5,��
2018/07/24,08:40,0.899,1.273,0.898,1.612,1.145,0.481,0.847,0.797,��,1.5,��
2018/07/24,08:50,0.898,1.275,0.900,1.615,1.147,0.480,0.847,0.798,���쓌,1.9,��
2018/07/24,09:00,0.898,1.276,0.900,1.613,1.145,0.479,0.846,0.798,�쓌,1.7,��
2018/07/24,09:10,0.897,1.273,0.896,1.614,1.146,0.481,0.845,0.799,���쓌,1.9,��
2018/07/24,09:20,0.896,1.273,0.898,1.615,1.147,0.480,0.845,0.797,���쓌,2.0,��
2018/07/24,09:30,0.897,1.275,0.897,1.615,1.147,0.479,0.844,0.799,���쓌,1.5,��
2018/07/24,09:40,0.896,1.273,0.894,1.615,1.148,0.480,0.844,0.798,��,1.2,��
2018/07/24,09:50,0.898,1.274,0.897,1.613,1.145,0.481,0.845,0.799,��,1.2,��
2018/07/24,10:00,0.896,1.272,0.899,1.616,1.146,0.481,0.845,0.798,��,2.0,��
2018/07/24,10:10,0.899,1.276,0.899,1.615,1.144,0.479,0.846,0.797,�쓌,1.9,��
2018/07/24,10:20,0.898,1.278,0.898,1.615,1.144,0.480,0.844,0.797,���쓌,1.9,��
2018/07/24,10:30,0.898,1.278,0.897,1.617,1.142,0.480,0.846,0.798,���쓌,1.7,��
2018/07/24,10:40,0.897,1.276,0.897,1.615,1.145,0.481,0.846,0.795,�쓌,2.3,��
2018/07/24,10:50,0.899,1.279,0.897,1.615,1.146,0.482,0.846,0.797,�쓌,2.2,��
2018/07/24,11:00,0.897,1.277,0.899,1.616,1.146,0.481,0.847,0.798,��,2.2,��
2018/07/24,11:10,0.899,1.279,0.899,1.615,1.147,0.481,0.846,0.797,���쓌,1.9,��
2018/07/24,11:20,0.899,1.278,0.901,1.615,1.147,0.481,0.845,0.796,���쓌,2.3,��
2018/07/24,11:30,0.901,1.279,0.900,1.611,1.147,0.480,0.846,0.798,���쓌,2.6,��
2018/07/24,11:40,0.901,1.281,0.900,1.614,1.148,0.480,0.845,0.797,�쓌,3.0,��
2018/07/24,11:50,0.901,1.281,0.899,1.616,1.148,0.481,0.845,0.797,�쓌,3.1,��
2018/07/24,12:00,0.903,1.282,0.902,1.615,1.150,0.480,0.848,0.797,�쓌,3.3,��
2018/07/24,12:10,0.899,1.279,0.902,1.617,1.148,0.480,0.847,0.797,��쓌,2.9,��
2018/07/24,12:20,0.902,1.282,0.903,1.615,1.148,0.481,0.847,0.797,��쓌,2.2,��
2018/07/24,12:30,0.901,1.281,0.904,1.618,1.149,0.480,0.846,0.797,��쓌,2.8,��
2018/07/24,12:40,0.901,1.282,0.903,1.618,1.149,0.481,0.846,0.796,��쓌,1.9,��
2018/07/24,12:50,0.903,1.284,0.904,1.617,1.150,0.481,0.845,0.797,�쓌,2.9,��
2018/07/24,13:00,0.902,1.285,0.905,1.617,1.150,0.481,0.848,0.798,��쓌,2.8,��
2018/07/24,13:10,0.905,1.283,0.904,1.620,1.151,0.482,0.846,0.797,�쓌,3.2,��
2018/07/24,13:20,0.904,1.279,0.904,1.618,1.150,0.483,0.846,0.797,��쓌,4.1,��
2018/07/24,13:30,0.906,1.283,0.904,1.619,1.149,0.482,0.847,0.797,��쓌,4.4,��
2018/07/24,13:40,0.903,1.285,0.905,1.615,1.150,0.481,0.849,0.797,��쓌,3.6,��
2018/07/24,13:50,0.903,1.281,0.905,1.616,1.151,0.483,0.845,0.796,��쓌,5.0,��
2018/07/24,14:00,0.907,1.287,0.905,1.619,1.154,0.483,0.848,0.799,��쓌,4.1,��
2018/07/24,14:10,0.907,1.287,0.905,1.619,1.152,0.481,0.845,0.798,��쓌,3.2,��
2018/07/24,14:20,0.907,1.286,0.904,1.618,1.153,0.484,0.848,0.798,��쓌,3.9,��
2018/07/24,14:30,0.906,1.288,0.904,1.620,1.153,0.485,0.848,0.799,��쓌,3.3,��
2018/07/24,14:40,0.906,1.285,0.905,1.620,1.154,0.481,0.850,0.797,��쓌,2.9,��
2018/07/24,14:50,0.905,1.288,0.903,1.616,1.153,0.483,0.849,0.798,�쓌,2.6,��
2018/07/24,15:00,0.906,1.286,0.903,1.619,1.154,0.483,0.849,0.799,���쓌,3.0,��
2018/07/24,15:10,0.908,1.287,0.904,1.619,1.153,0.484,0.847,0.798,�쓌,2.6,��
2018/07/24,15:20,0.904,1.288,0.905,1.619,1.154,0.484,0.847,0.798,�쓌,2.8,��
2018/07/24,15:30,0.906,1.287,0.906,1.620,1.154,0.484,0.850,0.799,�쓌,2.5,��
2018/07/24,15:40,0.904,1.288,0.906,1.620,1.154,0.483,0.850,0.797,�쓌,2.6,��
2018/07/24,15:50,0.906,1.290,0.906,1.617,1.154,0.483,0.851,0.799,���쓌,2.0,��
2018/07/24,16:00,0.906,1.288,0.904,1.619,1.156,0.484,0.852,0.797,��쓌,2.3,��
2018/07/24,16:10,0.905,1.291,0.906,1.621,1.154,0.482,0.850,0.800,��쓌,3.3,��
2018/07/24,16:20,0.906,1.289,0.906,1.622,1.153,0.485,0.849,0.801,��쓌,3.5,��
2018/07/24,16:30,0.907,1.290,0.905,1.619,1.155,0.483,0.850,0.802,��쓌,2.6,��
2018/07/24,16:40,0.904,1.292,0.909,1.621,1.152,0.484,0.849,0.801,��쓌,3.1,��
2018/07/24,16:50,0.905,1.292,0.905,1.620,1.155,0.482,0.850,0.802,��쓌,3.2,��
2018/07/24,17:00,0.906,1.290,0.904,1.619,1.155,0.484,0.850,0.800,��쓌,2.3,��
2018/07/24,17:10,0.906,1.291,0.907,1.615,1.153,0.485,0.850,0.800,��,2.5,��
2018/07/24,17:20,0.906,1.294,0.907,1.618,1.153,0.484,0.850,0.800,��쓌,2.9,��
2018/07/24,17:30,0.904,1.292,0.906,1.618,1.156,0.485,0.849,0.801,��쓌,2.3,��
2018/07/24,17:40,0.904,1.290,0.906,1.620,1.155,0.485,0.849,0.800,��쓌,1.5,��
2018/07/24,17:50,0.905,1.290,0.905,1.620,1.154,0.486,0.849,0.800,�쓌,1.4,��
2018/07/24,18:00,0.905,1.293,0.905,1.618,1.154,0.485,0.849,0.799,��,0.9,��
2018/07/24,18:10,0.906,1.291,0.906,1.619,1.154,0.484,0.849,0.800,��,1.1,��
2018/07/24,18:20,0.903,1.293,0.907,1.618,1.154,0.484,0.850,0.800,��,1.2,��
2018/07/24,18:30,0.904,1.294,0.905,1.620,1.154,0.485,0.850,0.801,��,1.7,��
2018/07/24,18:40,0.904,1.290,0.907,1.618,1.158,0.484,0.850,0.799,��,1.1,��
2018/07/24,18:50,0.903,1.290,0.907,1.619,1.155,0.484,0.849,0.800,��,1.2,��
2018/07/24,19:00,0.903,1.290,0.905,1.617,1.158,0.483,0.848,0.800,���k��,0.6,��
2018/07/24,19:10,0.903,1.291,0.906,1.620,1.156,0.485,0.848,0.800,���쓌,1.2,��
2018/07/24,19:20,0.906,1.294,0.905,1.618,1.152,0.486,0.849,0.799,�쓌,0.8,��
2018/07/24,19:30,0.904,1.292,0.906,1.618,1.155,0.485,0.849,0.802,��쐼,0.9,��
2018/07/24,19:40,0.905,1.290,0.907,1.617,1.153,0.486,0.848,0.800,��,1.4,��
2018/07/24,19:50,0.904,1.293,0.907,1.615,1.154,0.485,0.849,0.800,��,0.9,��
2018/07/24,20:00,0.903,1.291,0.905,1.620,1.155,0.484,0.849,0.800,��,0.9,��
2018/07/24,20:10,0.904,1.290,0.906,1.621,1.155,0.483,0.850,0.799,��쓌,0.6,��
2018/07/24,20:20,0.905,1.291,0.908,1.620,1.154,0.483,0.848,0.801,��,0.8,��
2018/07/24,20:30,0.903,1.291,0.905,1.618,1.154,0.484,0.848,0.799,��쐼,0.6,��
2018/07/24,20:40,0.905,1.292,0.906,1.617,1.154,0.483,0.850,0.799,�쐼,1.1,��
2018/07/24,20:50,0.905,1.292,0.906,1.620,1.153,0.484,0.847,0.798,��쐼,1.1,��
2018/07/24,21:00,0.904,1.292,0.906,1.617,1.157,0.483,0.848,0.800,�쐼,0.6,��
2018/07/24,21:10,0.903,1.292,0.905,1.616,1.153,0.484,0.848,0.801,���쐼,0.8,��
2018/07/24,21:20,0.906,1.289,0.907,1.619,1.153,0.485,0.849,0.801,��,0.6,��
2018/07/24,21:30,0.902,1.292,0.905,1.620,1.153,0.485,0.849,0.800,��,0.9,��
2018/07/24,21:40,0.903,1.292,0.909,1.616,1.155,0.485,0.850,0.801,�k�k��,0.9,��
2018/07/24,21:50,0.903,1.290,0.906,1.617,1.152,0.484,0.848,0.800,��,0.8,��
2018/07/24,22:00,0.904,1.291,0.906,1.619,1.155,0.483,0.850,0.802,���k��,0.9,��
2018/07/24,22:10,0.903,1.290,0.906,1.618,1.155,0.484,0.849,0.801,��,0.9,��
2018/07/24,22:20,0.904,1.290,0.905,1.617,1.154,0.483,0.848,0.800,-,CALM,��
2018/07/24,22:30,0.905,1.289,0.905,1.620,1.154,0.484,0.849,0.801,-,CALM,��
2018/07/24,22:40,0.904,1.291,0.905,1.619,1.152,0.483,0.848,0.802,-,CALM,��
2018/07/24,22:50,0.907,1.287,0.906,1.620,1.155,0.483,0.849,0.800,���쓌,1.1,��
2018/07/24,23:00,0.906,1.288,0.908,1.621,1.155,0.482,0.848,0.799,��쓌,0.9,��
2018/07/24,23:10,0.904,1.289,0.906,1.618,1.155,0.484,0.848,0.799,��쓌,1.2,��
2018/07/24,23:20,0.904,1.286,0.905,1.620,1.155,0.482,0.850,0.799,���쓌,1.4,��
2018/07/24,23:30,0.903,1.288,0.908,1.616,1.156,0.482,0.847,0.801,���쓌,1.5,��
2018/07/24,23:40,0.904,1.288,0.907,1.619,1.154,0.484,0.848,0.800,���쓌,1.5,��
2018/07/24,23:50,0.903,1.289,0.904,1.617,1.153,0.483,0.848,0.799,���쓌,1.7,��
